TimeCST,TemperatureF,Dew PointF,Humidity,Sea Level PressureIn,VisibilityMPH,Wind Direction,Wind SpeedMPH,Gust SpeedMPH,PrecipitationIn,Events,Conditions,WindDirDegrees,DateUTC
12:55 AM,51.1,46.2,83,30.19,10.0,NNW,3.5,-,N/A,,Clear,330,2012-11-22 06:55:00
1:54 AM,51.1,46.2,83,30.16,10.0,NNW,3.5,-,N/A,,Clear,330,2012-11-22 07:54:00
1:55 AM,51.1,46.2,83,30.16,10.0,NNW,3.5,-,N/A,,Clear,330,2012-11-22 07:55:00
2:55 AM,52.0,47.1,83,30.19,10.0,NNW,3.5,-,N/A,,Clear,330,2012-11-22 08:55:00
3:55 AM,50.2,46.6,87,30.17,10.0,NNW,3.5,-,N/A,,Clear,340,2012-11-22 09:55:00
4:55 AM,49.6,46.4,89,30.18,10.0,NNW,3.5,-,N/A,,Clear,340,2012-11-22 10:55:00
5:55 AM,49.5,46.0,88,30.20,10.0,North,5.8,-,N/A,,Clear,10,2012-11-22 11:55:00
6:55 AM,48.9,46.4,91,30.21,10.0,NNE,3.5,-,N/A,,Clear,20,2012-11-22 12:55:00
7:55 AM,55.6,48.2,76,30.23,10.0,NNE,6.9,-,N/A,,Clear,20,2012-11-22 13:55:00
8:55 AM,62.6,47.8,58,30.24,10.0,ENE,3.5,-,N/A,,Clear,70,2012-11-22 14:55:00
9:55 AM,67.3,46.6,47,30.25,10.0,ESE,2.3,-,N/A,,Clear,110,2012-11-22 15:55:00
10:55 AM,70.9,49.3,46,30.23,10.0,SE,8.1,-,N/A,,Clear,140,2012-11-22 16:55:00
11:55 AM,70.5,46.4,42,30.22,10.0,SSE,8.1,-,N/A,,Partly Cloudy,150,2012-11-22 17:55:00
12:55 PM,70.9,48.4,45,30.19,10.0,South,9.2,-,N/A,,Partly Cloudy,170,2012-11-22 18:55:00
1:55 PM,70.3,51.6,51,30.18,10.0,South,9.2,-,N/A,,Partly Cloudy,180,2012-11-22 19:55:00
2:55 PM,69.1,56.1,63,30.18,10.0,South,8.1,-,N/A,,Partly Cloudy,190,2012-11-22 20:55:00
3:55 PM,68.4,55.9,64,30.18,10.0,SSW,5.8,-,N/A,,Partly Cloudy,200,2012-11-22 21:55:00
4:55 PM,65.3,55.2,70,30.20,10.0,Calm,Calm,-,N/A,,Scattered Clouds,0,2012-11-22 22:55:00
5:55 PM,60.8,54.0,78,30.19,10.0,Calm,Calm,-,N/A,,Partly Cloudy,0,2012-11-22 23:55:00
6:55 PM,58.3,52.3,81,30.22,10.0,Calm,Calm,-,N/A,,Partly Cloudy,0,2012-11-23 00:55:00
7:55 PM,55.8,51.3,85,30.22,10.0,Calm,Calm,-,N/A,,Clear,0,2012-11-23 01:55:00
8:55 PM,53.4,49.3,86,30.23,10.0,Calm,Calm,-,N/A,,Clear,0,2012-11-23 02:55:00
9:55 PM,53.8,50.5,89,30.23,10.0,Calm,Calm,-,N/A,,Clear,0,2012-11-23 03:55:00
10:55 PM,50.5,47.8,90,30.23,10.0,NW,3.5,-,N/A,,Partly Cloudy,310,2012-11-23 04:55:00
11:55 PM,49.3,46.8,91,30.23,10.0,NW,3.5,-,N/A,,Partly Cloudy,310,2012-11-23 05:55:00